Waarnemingen

Advertentie
Mijn weer
Chievres, België (6432): temperatuur & dauwpunt: 14.01.2021 08:00:00 - 20.01.2021 08:00:00 (CET)Chievres, België (6432): windsnelheid & windstoten: 14.01.2021 08:00:00 - 20.01.2021 08:00:00 (CET)Chievres, België (6432): windrichting: 14.01.2021 08:00:00 - 20.01.2021 08:00:00 (CET)Chievres, België (6432): luchtdruk: 14.01.2021 08:00:00 - 20.01.2021 08:00:00 (CET)Chievres, België (6432): zicht: 14.01.2021 08:00:00 - 20.01.2021 08:00:00 (CET)
Datum & Tijd tt [°C] td [°C] ff [km/u] ff [kn] fx [km/u] fx [kn] dd ppp [hPa] vv [km]
20.01.2021 08:00:00 - - - - - - - - -
20.01.2021 07:00:00 7,0 4,4 32 18 - - ZZW 1001,1 20
20.01.2021 06:00:00 6,7 4,6 32 18 58 31 ZZW 1001,6 15
20.01.2021 05:00:00 7,9 4,2 36 19 58 31 ZZW 1002,0 20
20.01.2021 04:00:00 7,1 3,9 29 16 - - Z 1002,3 20
20.01.2021 03:00:00 6,5 4,5 35 19 50 27 ZZW 1003,5 6
20.01.2021 02:00:00 6,5 3,6 37 20 50 27 ZZW 1004,1 10
20.01.2021 01:00:00 6,3 3,7 32 18 - - ZZW 1004,7 20
20.01.2021 00:00:00 6,1 3,6 25 14 47 25 Z 1005,2 20
19.01.2021 23:00:00 6,3 3,7 32 18 50 27 Z 1006,1 20
19.01.2021 22:00:00 6,4 4,3 32 18 - - Z 1007,2 19
19.01.2021 21:00:00 6,3 4,5 32 18 47 25 Z 1007,7 20
19.01.2021 20:00:00 6,0 4,6 32 18 47 25 ZZW 1008,6 11
19.01.2021 19:00:00 6,0 4,6 29 16 - - ZZW 1009,1 19
19.01.2021 18:00:00 6,4 4,9 32 18 47 25 ZZW 1009,3 19
19.01.2021 17:00:00 6,6 5,8 29 16 43 23 ZZW 1009,6 5
19.01.2021 16:00:00 7,0 6,2 25 14 - - ZZW 1009,5 8
19.01.2021 15:00:00 7,5 6,3 32 18 47 25 ZZW 1009,3 20
19.01.2021 14:00:00 7,8 6,6 29 16 50 27 ZW 1009,8 20
19.01.2021 13:00:00 7,5 6,7 34 18 - - ZW 1010,0 10
19.01.2021 12:00:00 6,6 6,0 32 18 65 35 ZW 1010,3 11
19.01.2021 11:00:00 6,5 5,6 43 23 61 33 ZW 1010,2 13
19.01.2021 10:00:00 6,0 5,0 36 19 - - ZW 1010,0 20
19.01.2021 09:00:00 5,5 4,3 43 23 68 37 ZZW 1010,1 13
19.01.2021 08:00:00 5,0 3,8 40 21 68 37 ZZW 1011,1 6
19.01.2021 07:00:00 5,1 3,7 40 21 - - ZZW 1011,2 7
19.01.2021 06:00:00 4,9 3,7 39 21 58 31 ZZW 1012,2 3,6
19.01.2021 05:00:00 4,9 3,3 36 19 54 29 ZZW 1013,5 20
19.01.2021 04:00:00 4,5 3,3 35 19 - - ZZW 1014,7 8
19.01.2021 03:00:00 4,4 2,9 32 18 47 25 ZZW 1016,2 10
19.01.2021 02:00:00 4,3 1,9 32 18 43 23 ZZW 1017,2 20
19.01.2021 01:00:00 3,6 1,3 29 16 - - ZZW 1018,3 20
19.01.2021 00:00:00 3,7 1,3 25 14 40 21 ZZW 1019,5 20
18.01.2021 23:00:00 4,8 2,1 25 14 36 19 ZZW 1020,0 20
18.01.2021 22:00:00 5,0 2,7 25 14 - - ZZW 1020,7 20
18.01.2021 21:00:00 5,0 3,2 22 12 29 16 ZZW 1021,2 20
18.01.2021 20:00:00 4,8 3,9 11 6 18 10 ZW 1022,2 13
18.01.2021 19:00:00 4,7 4,0 15 8 - - ZW 1022,1 9
18.01.2021 18:00:00 4,5 4,0 15 8 25 14 ZZW 1022,2 3,4
18.01.2021 17:00:00 4,5 3,6 18 10 29 16 ZZW 1022,5 12
18.01.2021 16:00:00 4,4 3,4 18 10 - - ZZW 1022,7 10
18.01.2021 15:00:00 4,3 3,2 18 10 32 18 ZW 1023,1 8
18.01.2021 14:00:00 5,0 3,3 22 12 29 16 ZW 1023,3 15
18.01.2021 13:00:00 4,6 3,1 14 8 - - ZW 1024,5 14
18.01.2021 12:00:00 4,0 2,7 18 10 25 14 ZZW 1025,0 18
18.01.2021 11:00:00 3,0 2,0 14 8 25 14 ZW 1025,2 17
18.01.2021 10:00:00 2,5 1,5 18 10 - - ZZW 1025,2 14
18.01.2021 09:00:00 1,7 0,9 14 8 25 14 ZZW 1025,0 14
18.01.2021 08:00:00 1,0 0,5 11 6 14 8 ZZW 1025,2 11
18.01.2021 07:00:00 0,6 0,2 11 6 - - ZW 1025,2 9
18.01.2021 06:00:00 0,6 0,1 14 8 18 10 ZZW 1025,4 9
18.01.2021 05:00:00 0,6 0,2 11 6 14 8 ZZW 1025,5 10
18.01.2021 04:00:00 1,0 0,3 11 6 - - ZW 1025,7 11
18.01.2021 03:00:00 1,5 0,7 11 6 14 8 ZW 1025,7 13
18.01.2021 02:00:00 1,0 0,4 11 6 14 8 ZW 1025,9 9
18.01.2021 01:00:00 1,3 0,6 7 4 - - ZW 1026,2 9
18.01.2021 00:00:00 2,7 1,7 7 4 14 8 WZW 1026,2 13
17.01.2021 23:00:00 3,0 1,9 7 4 18 10 WZW 1026,0 15
17.01.2021 22:00:00 3,9 2,7 11 6 - - WZW 1026,0 13
17.01.2021 21:00:00 3,7 2,5 7 4 14 8 ZW 1025,7 13
17.01.2021 20:00:00 4,5 2,1 11 6 18 10 W 1025,7 20
17.01.2021 19:00:00 4,5 2,3 11 6 - - W 1025,2 19
17.01.2021 18:00:00 4,5 2,4 11 6 18 10 W 1024,7 20
17.01.2021 17:00:00 4,6 2,2 14 8 22 12 W 1024,2 20
17.01.2021 16:00:00 5,1 3,1 14 8 - - WNW 1023,5 20
17.01.2021 15:00:00 5,1 3,7 11 6 22 12 W 1022,6 17
17.01.2021 14:00:00 5,0 3,4 11 6 18 10 W 1022,2 18
17.01.2021 13:00:00 4,5 3,3 11 6 - - W 1022,0 14
17.01.2021 12:00:00 4,0 2,9 7 4 14 8 W 1021,5 14
17.01.2021 11:00:00 3,4 2,4 7 4 14 8 W 1020,7 14
17.01.2021 10:00:00 2,9 2,1 7 4 - - W 1019,7 16
17.01.2021 09:00:00 2,7 1,9 7 4 18 10 W 1018,7 13
17.01.2021 08:00:00 2,9 2,2 14 8 25 14 WNW 1018,1 5
17.01.2021 07:00:00 3,1 2,4 11 6 - - W 1017,6 10
17.01.2021 06:00:00 2,5 2,4 11 6 14 8 W 1017,2 4,7
17.01.2021 05:00:00 2,3 2,3 11 6 14 8 W 1016,8 1,9
17.01.2021 04:00:00 1,7 1,6 7 4 - - W 1016,7 0,4
17.01.2021 03:00:00 1,1 1,0 9 5 14 8 WZW 1016,7 1,5
17.01.2021 02:00:00 0,6 0,4 7 4 14 8 ZZW 1016,2 2,7
17.01.2021 01:00:00 0,5 0,2 11 6 - - ZW 1016,7 4,7
17.01.2021 00:00:00 0,4 0,1 7 4 18 10 ZZW 1016,7 6
16.01.2021 23:00:00 0,3 0,1 11 6 22 12 ZZW 1017,0 9
16.01.2021 22:00:00 0,2 -0,1 14 8 - - ZZW 1017,2 2,9
16.01.2021 21:00:00 0,2 -0,2 13 7 25 14 ZZW 1017,1 3,3
16.01.2021 20:00:00 0,1 -0,3 18 10 25 14 Z 1017,2 3,4
16.01.2021 19:00:00 -0,2 -0,7 18 10 - - Z 1017,6 6
16.01.2021 18:00:00 -0,4 -1,0 22 12 32 18 Z 1018,2 3,3
16.01.2021 17:00:00 -0,4 -0,9 18 10 32 18 Z 1018,8 2,0
16.01.2021 16:00:00 -0,7 -1,0 18 10 - - Z 1020,0 1,5
16.01.2021 15:00:00 -0,8 -1,1 18 10 29 16 Z 1021,3 1,7
16.01.2021 14:00:00 -0,8 -1,1 21 11 36 19 ZZW 1022,8 1,5
16.01.2021 13:00:00 0,0 -2,9 22 12 - - Z 1023,7 10
16.01.2021 12:00:00 -0,1 -2,8 18 10 25 14 Z 1025,2 10
16.01.2021 11:00:00 -0,2 -3,2 18 10 29 16 Z 1026,5 13
16.01.2021 10:00:00 -0,2 -3,8 22 12 - - Z 1026,7 15
16.01.2021 09:00:00 -0,6 -2,8 11 6 18 10 Z 1027,2 13
16.01.2021 08:00:00 -0,5 -2,6 11 6 14 8 Z 1027,9 17
16.01.2021 07:00:00 0,2 -2,8 11 6 - - Z 1028,4 19
16.01.2021 06:00:00 -0,1 -1,7 7 4 11 6 Z 1029,2 10
16.01.2021 05:00:00 -0,2 -1,5 7 4 11 6 ZZW 1029,7 7
16.01.2021 04:00:00 -0,1 -1,8 4 2 - - N 1029,7 10
16.01.2021 03:00:00 -0,3 -1,3 4 2 7 4 - 1030,4 7
16.01.2021 02:00:00 -0,3 -0,8 5 3 7 4 ZW 1030,5 4,8
16.01.2021 01:00:00 -0,3 -1,0 4 2 - - N 1030,9 5
16.01.2021 00:00:00 -0,2 -1,1 4 2 4 2 N 1031,5 9
15.01.2021 23:00:00 -0,1 -1,1 4 2 7 4 N 1031,7 9
15.01.2021 22:00:00 0,0 -1,2 4 2 - - N 1031,5 9
15.01.2021 21:00:00 0,0 -1,3 2 1 4 2 - 1031,2 7
15.01.2021 20:00:00 0,2 -1,4 4 2 7 4 N 1031,2 9
15.01.2021 19:00:00 0,4 -1,5 4 2 - - N 1031,2 11
15.01.2021 18:00:00 0,4 -1,4 4 2 7 4 N 1030,7 12
15.01.2021 17:00:00 0,6 -1,9 4 2 7 4 N 1030,2 15
15.01.2021 16:00:00 0,8 -1,7 7 4 - - N 1030,0 16
15.01.2021 15:00:00 0,8 -2,0 7 4 18 10 N 1029,7 17
15.01.2021 14:00:00 0,8 -2,3 11 6 14 8 N 1030,0 19
15.01.2021 13:00:00 0,5 -2,0 11 6 - - N 1030,0 15
15.01.2021 12:00:00 0,2 -2,0 7 4 14 8 N 1029,9 16
15.01.2021 11:00:00 0,0 -2,3 7 4 14 8 N 1029,5 19
15.01.2021 10:00:00 -1,0 -2,0 9 5 - - N - 10
15.01.2021 09:00:00 -0,6 -2,6 14 8 18 10 NNO 1027,5 14
15.01.2021 08:00:00 -1,0 -2,6 14 8 22 12 NNO 1026,5 13
15.01.2021 07:00:00 -0,8 -2,3 14 8 - - NNO 1025,4 11
15.01.2021 06:00:00 -0,7 -2,3 14 8 25 14 NO 1024,5 13
15.01.2021 05:00:00 -0,6 -2,4 14 8 22 12 NNO 1023,7 16
15.01.2021 04:00:00 -0,5 -2,2 14 8 - - NNO 1022,8 16
15.01.2021 03:00:00 -0,3 -1,8 14 8 22 12 NNO 1022,2 18
15.01.2021 02:00:00 0,0 -1,4 14 8 22 12 NNO 1021,2 16
15.01.2021 01:00:00 0,4 -1,1 14 8 - - NNO 1020,2 19
15.01.2021 00:00:00 0,9 -0,9 18 10 32 18 NNO 1019,5 20
14.01.2021 23:00:00 0,6 -0,1 21 11 29 16 NNO 1018,6 10
14.01.2021 22:00:00 0,6 0,0 21 11 - - NO 1017,8 7
14.01.2021 21:00:00 0,6 0,1 22 12 0 0 NO 1016,8 6
14.01.2021 20:00:00 0,4 0,0 - - 0 0 - 1016,1 2,6
14.01.2021 19:00:00 0,4 0,1 - - - - - 1015,5 3,3
14.01.2021 18:00:00 0,5 0,3 18 10 32 18 O 1015,0 4,1
14.01.2021 17:00:00 0,8 0,4 22 12 32 18 O 1014,8 7
14.01.2021 16:00:00 0,6 0,3 22 12 - - O 1014,8 3,7
14.01.2021 15:00:00 0,8 0,4 18 10 25 14 O 1015,3 4,4
14.01.2021 14:00:00 1,0 0,6 14 8 22 12 O 1016,2 7
14.01.2021 13:00:00 0,6 0,4 15 8 - - O 1017,2 6
14.01.2021 12:00:00 0,3 0,3 - - 0 0 - 1018,1 5
14.01.2021 11:00:00 0,2 0,1 14 8 18 10 O 1018,7 3,7
14.01.2021 10:00:00 0,2 0,0 11 6 - - O 1018,8 2,2
14.01.2021 09:00:00 1,0 0,5 11 6 14 8 O 1018,7 7
14.01.2021 08:00:00 2,0 1,5 4 2 7 4 - 1018,3 8

tt = temperatuur
td = dauwpunt
ff = windsnelheid
fx = windstoten
dd = windrichting
ppp = luchtdruk
vv = zicht

Weerstations in de omgeving